[[{"header":{"parameterUnit":"m.s-1","parameterCategory":1,"la1":30.2991,"la2":30.254,"lo1":-89.0895,"lo2":-89.0444,"dy":0.0017,"dx":0.0017,"nx":28,"ny":28,"refTime":"2024-06-26T09:00:00:Z","depth":0,"parameterNumber":2,"parameterNumberName":"U-component_of_WINDS"},"data":[0,0,0,0,0,0,0,0,0,0,0,0,0,0,0,0,0,0,0,0,0,0,0,0,0,0,0,0,0,0,0,0,0,0,0,0,0,0,0,0,0,0,0,0,0,0,0,0,0,0,0,0,0,0,0,0,0,0,5.9613,5.9614,0,5.9702,5.9703,5.9704,5.9635,5.9632,5.9629,5.9626,5.9719,5.9724,5.9729,0,0,0,0,0,0,0,0,0,0,0,0,0,5.9384,5.9389,5.9613,5.9614,5.9615,5.9702,5.9703,5.9704,5.9635,5.9632,5.9628,5.9625,5.9717,5.9723,5.973,0,0,0,0,0,0,0,0,0,0,0,0,0,5.9479,5.939,5.9613,5.9591,5.959,5.9702,5.9703,5.9705,5.9636,5.9632,5.9627,5.9623,5.9715,5.9723,5.9731,5.9868,0,0,5.9755,5.9758,0,0,0,0,0,0,0,0,5.9474,5.9488,5.9593,5.9593,5.9592,5.9653,5.9656,5.976,5.9637,5.9619,5.9626,5.9621,5.9701,5.9709,5.9736,5.9873,5.9877,5.9755,5.976,5.9763,5.9766,0,0,0,0,0,0,0,5.9468,5.9484,5.9648,5.9595,5.9594,5.9577,5.9586,5.9676,5.9684,5.962,5.9615,5.9627,5.9699,5.9729,5.9738,5.9878,5.9755,5.9762,5.9767,5.977,6.0132,6.0137,0,0,0,0,0,0,5.9463,5.9479,5.9645,5.9651,5.9521,5.9585,5.9595,5.9638,5.9682,5.9685,5.963,5.9623,5.9717,5.9728,5.9741,5.9905,5.9763,5.9771,5.9775,6.0127,6.0133,6.0139,0,0,0,0,0,0,5.9458,5.9478,5.9642,5.9563,5.9583,5.9594,5.9643,5.9642,5.9671,5.969,5.9691,5.9659,5.9714,5.973,5.9837,5.9907,5.9774,5.9781,6.0122,6.0129,6.0136,6.0234,0,0,0,0,0,0,5.9452,5.9477,5.9529,5.9565,5.9587,5.9737,5.9647,5.9647,5.9684,5.9676,5.9717,5.972,5.9712,5.9826,5.9845,5.9915,5.9788,6.0115,6.0125,6.0134,6.0225,6.0244,6.026,0,0,0,0,0,5.9444,5.9554,5.9532,5.9553,5.9653,5.9741,5.9753,5.9742,5.969,5.9743,5.9755,5.9718,5.9896,5.9837,5.9858,5.9932,6.0111,6.0122,6.0133,6.0217,6.024,6.026,0,0,0,0,0,0,5.9527,5.9558,5.9535,5.9659,5.9698,5.9729,5.9795,5.9767,5.9821,5.9811,5.9795,5.9805,5.9917,5.9935,5.9869,6.0068,5.9995,6.0011,6.0052,6.0074,6.0092,6.0085,5.9794,0,0,0,0,0,5.9559,5.9628,5.9652,5.9759,5.978,5.9784,5.9822,5.981,5.9849,5.9865,5.9885,5.9925,5.999,6.0033,6.0094,6.0227,6.0235,6.0288,6.0306,6.0321,6.0334,6.0406,6.0429,6.0175,6.0175,6.0174,0,0,5.9628,5.9653,5.9698,5.9777,5.9805,5.9876,5.9799,5.9877,5.993,5.9877,5.998,5.9996,6.004,6.016,6.0215,6.0179,6.0406,6.0335,6.0346,6.0352,6.0419,6.0444,6.0465,6.0182,6.0181,6.018,0,0,5.9789,5.9815,5.9907,5.9937,5.9981,5.9983,6.0005,6.0041,6.0049,6.0152,6.0114,6.0176,6.0288,6.0321,6.0352,6.0525,6.0493,6.0545,6.0639,6.0708,6.0728,6.0746,6.0807,6.083,6.0559,6.0559,6.056,0,5.9868,5.9974,5.9959,6.004,6.0076,6.0031,6.0125,6.0154,6.0216,6.0242,6.0201,6.034,6.0366,6.0494,6.0536,6.0563,6.0588,6.0541,6.0727,6.0744,6.0761,6.0819,6.0842,6.0565,6.0565,6.0564,6.0564,0,6.0069,6.0143,6.0213,6.0273,6.0316,6.0404,6.0402,6.0448,6.0432,6.0439,6.0543,6.0573,6.0639,6.0668,6.0654,6.0794,6.077,6.0729,6.0655,6.0791,6.0846,6.0868,6.0574,6.0572,6.057,6.0569,0,0,6.0285,6.0335,6.0361,6.0387,6.0432,6.0489,6.0574,6.0638,6.0678,6.0722,6.0793,6.0888,6.085,6.0885,6.0874,6.0935,6.107,6.0886,6.0886,6.0918,6.1226,6.1256,6.1283,6.1049,6.1053,6.1056,6.1222,0,6.0448,6.0596,6.0584,6.0724,6.0792,6.075,6.0824,6.086,6.0868,6.0927,6.0937,6.1005,6.0949,6.097,6.1028,6.1041,6.1131,6.1029,6.1115,6.1118,6.1104,6.1311,6.1344,6.1499,6.1243,6.1247,6.1249,0,6.0658,6.0708,6.0855,6.0888,6.0916,6.0983,6.1041,6.1098,6.1137,6.1139,6.1178,6.1157,6.1243,6.1168,6.1286,6.1217,6.1251,6.1263,6.1268,6.1276,6.1191,6.1324,6.1548,6.1571,6.1283,6.128,6.1278,0,6.08,6.0905,6.1006,6.103,6.1072,6.112,6.114,6.1175,6.1214,6.1264,6.1289,6.1349,6.1382,6.1429,6.1424,6.1369,6.1544,6.1469,6.1548,6.1548,6.1586,6.1584,6.1819,6.1609,6.1609,6.1609,6.1608,0,6.0983,6.1074,6.107,6.1132,6.1233,6.1219,6.1319,6.1334,6.1365,6.1429,6.1397,6.1458,6.1448,6.1509,6.1506,6.1604,6.1619,6.1623,6.1621,6.1626,6.1625,6.1648,6.1637,6.1615,6.1613,6.1612,6.1611,0,6.1159,6.116,6.1267,6.1298,6.1308,6.1381,6.1407,6.1466,6.1471,6.1553,6.1572,6.1581,6.1651,6.165,6.1731,6.1729,6.1849,6.1835,6.1835,6.1832,6.1911,6.1904,6.2169,6.2202,6.1972,6.1974,6.1976,0,6.1275,6.1344,6.1382,6.1423,6.1446,6.1511,6.155,6.154,6.1582,6.1632,6.1685,6.1752,6.1804,6.1919,6.1933,6.1994,6.1981,6.2069,6.199,6.1992,6.1981,6.1977,6.1984,6.2085,6.2088,6.209,6.2091,0,6.1482,6.1479,6.1536,6.1594,6.1642,6.1687,6.1729,6.1764,6.1757,6.1807,6.1878,6.1919,6.2,6.2067,6.2126,6.2147,6.2119,6.2116,6.2138,6.2143,6.214,6.2142,6.1877,6.211,6.2108,6.2107,6.2106,6.2105,6.1631,6.169,6.1726,6.1791,6.1821,6.1861,6.1917,6.193,6.1988,6.2053,6.2044,6.2123,6.216,6.2236,6.2262,6.2324,6.2293,6.2324,6.2332,6.234,6.2348,6.2131,6.2335,6.2334,6.2334,6.2333,6.2333,0,6.1836,6.1856,6.1917,6.1975,6.2027,6.1995,6.2039,6.2084,6.2154,6.2191,6.2243,6.2325,6.2389,6.2408,6.247,6.2516,6.2505,6.2533,6.2529,6.2534,6.2372,6.2347,6.2541,6.2541,6.2541,6.2541,6.2541,6.2541,6.1948,6.2046,6.2047,6.216,6.218,6.2257,6.2284,6.2321,6.235,6.2442,6.2495,6.2507,6.2536,6.26,6.2658,6.2662,6.2686,6.272,6.2718,6.2567,6.2546,6.2526,6.2502,6.2725,6.2725,6.2875,6.2876,6.2877]},{"header":{"parameterUnit":"m.s-1","parameterCategory":1,"la1":30.2991,"la2":30.254,"lo1":-89.0895,"lo2":-89.0444,"dy":0.0017,"dx":0.0017,"nx":28,"ny":28,"refTime":"2024-06-26T09:00:00:Z","depth":0,"parameterNumber":3,"parameterNumberName":"V-component_of_WINDS"},"data":[0,0,0,0,0,0,0,0,0,0,0,0,0,0,0,0,0,0,0,0,0,0,0,0,0,0,0,0,0,0,0,0,0,0,0,0,0,0,0,0,0,0,0,0,0,0,0,0,0,0,0,0,0,0,0,0,0,0,2.5458,2.5459,0,2.5552,2.5554,2.5555,2.5536,2.5534,2.5532,2.5531,2.5627,2.5631,2.5635,0,0,0,0,0,0,0,0,0,0,0,0,0,2.5258,2.5262,2.5457,2.5459,2.546,2.5552,2.5554,2.5555,2.5536,2.5534,2.5532,2.553,2.5625,2.563,2.5635,0,0,0,0,0,0,0,0,0,0,0,0,0,2.5348,2.5263,2.5457,2.5462,2.5463,2.5552,2.5554,2.5555,2.5537,2.5534,2.5531,2.5529,2.5624,2.563,2.5636,2.5726,0,0,2.5655,2.5658,0,0,0,0,0,0,0,0,2.5343,2.5355,2.546,2.5462,2.5463,2.553,2.5518,2.5613,2.5537,2.5509,2.5531,2.5528,2.5596,2.5605,2.5628,2.5731,2.5735,2.5656,2.5659,2.5662,2.5664,0,0,0,0,0,0,0,2.5337,2.5351,2.5495,2.5461,2.5463,2.5458,2.5468,2.5536,2.5566,2.5511,2.551,2.5521,2.5597,2.5622,2.563,2.5736,2.5655,2.5661,2.5665,2.5667,2.5916,2.5919,0,0,0,0,0,0,2.5329,2.5346,2.5492,2.5498,2.5395,2.5464,2.5475,2.5511,2.5565,2.5571,2.5523,2.552,2.5613,2.5623,2.5634,2.5742,2.5662,2.5668,2.5671,2.5913,2.5917,2.592,0,0,0,0,0,0,2.5325,2.5342,2.5488,2.5422,2.544,2.547,2.5511,2.5514,2.554,2.5575,2.558,2.5544,2.5611,2.5625,2.5703,2.5745,2.5671,2.5676,2.591,2.5914,2.5918,2.596,0,0,0,0,0,0,2.5319,2.5341,2.5376,2.5423,2.5443,2.5557,2.5513,2.5518,2.5551,2.5547,2.5595,2.5601,2.561,2.5694,2.5709,2.5753,2.5681,2.5906,2.5912,2.5917,2.5955,2.5966,2.5974,0,0,0,0,0,2.5312,2.5384,2.5378,2.5396,2.5488,2.5559,2.5571,2.5581,2.5554,2.5589,2.5611,2.5599,2.5738,2.5702,2.5719,2.5765,2.5904,2.591,2.5916,2.5951,2.5964,2.5974,0,0,0,0,0,0,2.5342,2.539,2.5384,2.5473,2.5512,2.5556,2.5601,2.5594,2.5641,2.5636,2.5646,2.5657,2.5736,2.5758,2.5717,2.5854,2.5817,2.5827,2.5837,2.5849,2.5859,2.5852,2.5686,0,0,0,0,0,2.5359,2.5413,2.5452,2.5527,2.5547,2.5571,2.5602,2.5606,2.5647,2.5663,2.5691,2.5731,2.5783,2.5817,2.5868,2.5958,2.5968,2.5998,2.6007,2.6015,2.6024,2.6072,2.6086,2.5941,2.5941,2.5941,0,0,2.5394,2.5428,2.5461,2.5534,2.5565,2.562,2.5585,2.5645,2.5686,2.5672,2.5748,2.577,2.5814,2.5899,2.5937,2.592,2.6066,2.6023,2.6029,2.6034,2.608,2.6094,2.6106,2.5945,2.5944,2.5944,0,0,2.5487,2.5518,2.5584,2.5615,2.5662,2.5677,2.5693,2.5737,2.5751,2.5827,2.5818,2.5866,2.5956,2.5988,2.6016,2.612,2.611,2.6136,2.6186,2.6233,2.6244,2.6254,2.6291,2.6304,2.6144,2.6145,2.6145,0,2.5526,2.5609,2.5618,2.5679,2.5711,2.5701,2.5767,2.5797,2.5858,2.5879,2.5859,2.5971,2.6,2.6092,2.6117,2.614,2.6158,2.6131,2.6242,2.6252,2.6262,2.6297,2.631,2.6147,2.6147,2.6147,2.6146,0,2.5654,2.5712,2.5759,2.5818,2.5855,2.5918,2.5936,2.5972,2.5972,2.5989,2.6066,2.6101,2.6157,2.6179,2.618,2.6271,2.6258,2.624,2.6202,2.6278,2.6311,2.6325,2.6151,2.615,2.615,2.6149,0,0,2.5769,2.5831,2.5849,2.5875,2.5925,2.597,2.6032,2.6087,2.6118,2.616,2.6212,2.6288,2.627,2.6302,2.6307,2.6348,2.6427,2.6324,2.6325,2.6342,2.6528,2.6541,2.6557,2.6421,2.6423,2.6425,2.6524,0,2.5866,2.5977,2.5986,2.6085,2.6138,2.6128,2.6182,2.6219,2.6236,2.6282,2.6301,2.6355,2.6328,2.6347,2.6388,2.6409,2.6464,2.6402,2.6468,2.6471,2.6458,2.6574,2.6589,2.6681,2.6537,2.6539,2.6541,0,2.5995,2.6041,2.6145,2.6187,2.621,2.6258,2.6309,2.6354,2.6395,2.6404,2.6439,2.6438,2.65,2.646,2.6546,2.6503,2.6531,2.6545,2.6549,2.6556,2.651,2.6584,2.671,2.6724,2.6561,2.6559,2.6558,0,2.6068,2.6156,2.6229,2.6252,2.6303,2.6337,2.636,2.6398,2.643,2.6474,2.6495,2.6546,2.6574,2.6613,2.6625,2.6595,2.6711,2.6671,2.672,2.6719,2.6745,2.6743,2.6877,2.6763,2.6762,2.6762,2.6762,0,2.6176,2.624,2.6263,2.6308,2.6379,2.6388,2.6458,2.6479,2.6512,2.6561,2.6555,2.6601,2.6613,2.6661,2.667,2.674,2.6753,2.6761,2.6763,2.6762,2.6761,2.678,2.6774,2.6766,2.6765,2.6764,2.6764,0,2.627,2.6288,2.6367,2.6409,2.6421,2.6471,2.6506,2.6549,2.6565,2.6626,2.6641,2.6666,2.6721,2.6736,2.6803,2.6809,2.6891,2.6887,2.6877,2.6877,2.6924,2.692,2.7076,2.7096,2.6968,2.6969,2.6971,0,2.6338,2.6387,2.6434,2.6466,2.649,2.6542,2.6575,2.6586,2.662,2.6669,2.6706,2.676,2.6805,2.6894,2.6917,2.6967,2.6964,2.7015,2.6972,2.6969,2.6965,2.6962,2.6966,2.7024,2.7025,2.7026,2.7027,0,2.6456,2.6462,2.651,2.6561,2.6601,2.6641,2.668,2.6707,2.6723,2.6761,2.6818,2.6852,2.692,2.6974,2.7025,2.7047,2.704,2.7041,2.7054,2.7054,2.7046,2.705,2.69,2.7037,2.7036,2.7035,2.7035,2.7034,2.6539,2.6582,2.6621,2.6674,2.6705,2.6741,2.6783,2.6804,2.6852,2.6908,2.6911,2.6972,2.701,2.7077,2.7103,2.715,2.7135,2.7155,2.716,2.7165,2.7168,2.7038,2.7159,2.7159,2.7159,2.7159,2.7158,0,2.6656,2.6681,2.673,2.6785,2.6826,2.6816,2.6858,2.6893,2.6947,2.6984,2.7027,2.7092,2.7144,2.7171,2.7223,2.7255,2.7253,2.7268,2.7266,2.7271,2.7179,2.7162,2.7269,2.7269,2.7269,2.7269,2.7269,2.7269,2.6722,2.6794,2.6805,2.6891,2.6915,2.6975,2.7,2.7033,2.7062,2.7134,2.7178,2.7195,2.7227,2.7281,2.7328,2.7334,2.7353,2.7371,2.7375,2.7289,2.7278,2.7267,2.7251,2.7375,2.7375,2.7463,2.7464,2.7465]}]]